Location: Lake Arresoe
(56.0000°N, 12.5000°E)
Time: 08:53:43
(UTC+02:00)

Cosmos 1674 - Pass Details

Date: 25 July 2021
Orbit: 491 x 516 km, 82.5° (Epoch: 26 September)

Event Time Altitude Azimuth Distance (km) Brightness Sun altitude
Rises 02:44:10 0° 358° (N) 2,653 7.7 -12.1°
Reaches altitude 10° 02:47:07 10° 22° (NNE) 1,762 7.0 -12.0°
Maximum altitude 02:49:22 15° 58° (ENE) 1,477 5.8 -11.9°
Drops below altitude 10° 02:51:39 10° 95° (E) 1,764 5.6 -11.7°
Sets 02:54:33 0° 119° (ESE) 2,638 6.2 -11.6°
